RH
17 17 21 22 19 19 18 18 17 15 16 15 15 16 18 21 22 19 15 15 16 15 16 18 18 20 25 72 42 40 38 38 41 43 53 59 96 85 96 85 73 73 60 64 85 76 54
16 17 21 23 21 20 20 19 18 17 15 14 12 14 15 17 22 22 16 15 17 18 17 19 20 22 22 42 36 39 42 43 52 55 52 67 67 78 75 88 74 73 60 57 60 76 77
17 16 21 23 22 20 19 19 18 16 12 12 11 11 11 14 17 21 18 16 17 21 20 19 22 22 22 30 32 38 44 48 53 55 62 62 66 76 96 84 67 76 69 54 54 66 70
14 15 20 23 20 18 16 15 16 15 11 10 10 10 9 10 12 17 18 18 18 22 22 20 21 22 28 30 34 41 50 47 53 57 59 65 68 67 70 76 72 66 56 44 36 46 64
10 13 16 22 17 15 12 12 12 13 9 9 9 9 8 8 8 10 17 18 19 23 25 24 22 26 30 29 33 36 38 46 55 56 56 57 58 65 72 75 66 52 41 34 32 43 54
8 9 14 20 20 11 10 9 10 11 11 8 8 7 8 7 7 8 9 18 18 23 27 25 24 34 32 28 31 35 39 46 49 52 80 69 71 91 61 67 62 53 42 39 31 48 55
7 8 9 15 22 15 9 8 8 8 10 9 8 8 7 7 6 6 8 9 18 20 25 28 26 25 27 28 27 31 34 37 43 73 75 75 72 68 74 76 75 69 47 44 47 49 48
6 6 8 10 18 20 13 8 6 6 6 8 8 7 7 7 7 6 6 7 10 20 21 23 26 24 25 28 28 33 31 32 36 66 57 62 66 62 56 61 64 57 46 45 54 54 38
5 6 6 9 11 21 18 13 8 6 5 5 6 7 6 6 7 6 6 7 9 16 20 18 22 23 24 26 28 29 34 28 28 58 50 58 53 55 69 60 59 52 55 57 56 51 46
4 5 6 7 11 12 21 19 14 10 6 4 4 4 5 5 7 6 7 6 8 10 19 15 18 22 23 24 26 30 36 39 51 32 45 55 45 46 66 60 60 46 51 54 57 47 36
7 4 5 6 8 12 14 21 20 18 14 6 3 3 3 3 5 6 6 7 7 11 77 11 12 15 20 21 24 23 24 27 38 39 32 46 42 44 57 50 51 58 50 46 50 53 45
9 8 5 6 7 9 13 16 21 21 20 17 6 3 3 3 4 6 6 7 8 13 47 9 8 9 12 14 17 19 17 13 16 33 50 33 37 34 40 37 47 49 60 55 54 57 51
10 9 9 6 7 9 10 14 17 21 20 20 16 6 3 3 4 6 7 7 9 22 8 10 8 7 8 8 11 13 19 24 17 28 50 48 40 34 34 49 54 62 58 51 50 53 41
14 10 10 10 7 9 11 12 16 19 20 19 19 14 5 3 4 5 7 7 10 8 7 7 8 7 8 8 8 8 14 35 25 20 38 46 48 36 36 42 43 61 56 50 48 38 32
35 15 11 11 10 9 12 13 14 17 20 20 20 18 8 4 4 4 6 7 7 7 7 8 7 9 26 13 9 9 26 28 23 15 30 35 27 24 22 43 38 50 56 47 55 41 43
95 89 56 19 13 11 12 14 15 16 19 20 20 18 10 6 5 4 5 5 6 6 6 8 12 8 19 17 10 25 22 17 18 19 19 35 40 25 18 36 40 36 37 48 55 49 45
100 91 96 93 16 16 12 15 17 18 20 21 21 19 15 11 9 8 6 6 8 8 8 10 10 10 10 10 8 20 17 16 16 17 16 15 31 24 29 38 41 52 54 56 50 48 42
100 98 91 94 44 19 15 16 18 19 21 22 22 21 17 15 14 14 14 12 10 9 9 9 8 10 10 11 10 27 14 15 13 18 17 17 16 42 28 19 30 37 36 48 44 37 42
87 90 81 92 70 35 19 17 19 19 22 22 22 21 19 18 16 14 12 10 10 9 9 9 9 12 12 10 16 17 10 9 14 18 21 20 31 33 17 25 23 25 42 42 48 50 44
76 82 86 99 98 37 24 30 19 20 21 21 21 19 17 16 14 13 12 10 10 10 10 10 10 11 10 9 9 15 12 12 15 16 18 19 24 33 24 20 22 27 27 33 46 52 44
95 93 99 98 89 40 38 24 24 22 20 19 19 18 16 15 13 13 12 12 10 11 10 10 10 10 11 12 30 19 18 20 22 17 20 23 38 32 24 33 28 27 19 15 41 39 51
93 88 96 97 98 60 38 29 27 27 26 22 20 18 17 16 15 14 12 12 12 11 11 11 11 10 10 12 21 28 26 25 36 37 24 23 40 44 32 35 35 44 14 10 32 32 45
98 99 93 67 75 71 45 40 36 36 35 30 24 22 22 21 20 19 18 17 17 16 15 15 14 12 11 13 11 10 9 9 8 20 26 44 56 47 42 37 34 32 22 22 24 22 26
98 95 80 51 54 62 63 54 45 36 35 34 31 32 31 30 30 28 26 24 23 20 17 18 16 13 15 13 12 11 12 21 36 42 25 29 41 56 49 43 41 27 25 25 26 26 24
100 98 82 74 68 68 59 51 46 46 49 43 39 41 41 38 36 34 30 27 26 24 24 25 26 32 30 24 35 52 46 47 40 39 36 18 43 46 47 36 32 34 32 28 26 30 36
100 93 87 83 64 58 53 56 63 60 60 58 60 60 54 54 54 49 49 46 41 37 41 42 56 59 52 62 81 68 55 52 52 42 36 27 29 53 45 48 44 34 34 34 33 42 38
100 93 93 83 67 66 69 72 77 80 92 86 64 56 55 52 44 51 66 74 75 79 82 77 80 79 77 84 89 83 74 69 64 58 50 48 42 50 58 57 41 40 41 42 43 39 45
100 91 88 86 96 92 93 95 89 88 79 63 59 62 73 78 71 68 74 72 80 79 85 98 99 95 96 99 100 85 77 74 75 63 57 54 58 68 61 53 56 50 47 46 45 46 47
92 90 93 99 100 96 94 93 74 62 59 71 78 78 84 100 98 84 76 78 85 84 91 100 100 100 100 97 98 96 93 92 94 85 75 68 57 52 48 50 50 53 57 56 59 60 58
Wind_Speed
8 9 9 8 8 8 8 8 9 9 10 12 15 17 19 22 21 17 16 21 25 26 26 25 22 23 22 15 17 17 18 18 17 14 12 11 7 7 4 6 9 14 14 19 18 19 25
7 8 8 7 7 7 8 8 8 8 10 12 16 19 21 23 23 18 15 18 25 25 27 22 23 24 22 17 18 16 17 18 18 16 13 10 7 5 3 6 7 6 14 15 18 13 12
4 6 7 7 7 6 7 7 7 7 9 11 15 18 19 22 25 21 16 15 21 27 22 23 25 27 27 23 20 19 18 18 17 16 14 10 8 4 6 4 8 6 8 15 18 19 9
5 4 4 5 5 5 5 6 6 6 8 10 13 16 18 21 24 24 19 16 17 24 22 25 19 21 27 23 20 20 18 17 18 16 16 11 7 4 5 4 5 5 7 10 15 20 12
6 5 4 3 3 4 4 5 5 5 7 9 12 14 16 18 20 23 21 17 17 21 26 19 25 23 24 24 23 19 18 16 17 15 17 12 8 12 6 6 3 3 6 5 9 17 13
9 7 6 6 4 3 3 4 4 4 5 7 10 12 15 17 19 20 22 17 15 21 23 22 24 15 20 21 21 20 20 19 16 17 15 16 13 8 8 13 9 6 4 3 4 6 16
11 10 9 7 7 7 5 4 5 5 5 6 9 11 13 15 17 19 19 20 14 15 23 24 23 20 19 18 19 21 19 17 19 12 10 11 12 10 8 9 8 7 2 3 1 3 11
14 12 11 10 10 9 8 6 6 7 7 7 8 10 12 13 15 17 20 20 18 9 16 22 23 22 21 18 21 20 19 18 18 14 12 7 12 10 8 10 8 7 4 4 1 4 3
16 15 15 13 12 12 12 11 8 9 9 9 9 10 11 12 14 15 18 21 18 12 7 17 20 22 23 20 22 22 22 17 18 13 12 10 10 9 8 8 9 5 6 7 7 8 5
19 17 17 17 15 15 15 14 12 10 11 11 11 11 12 12 12 14 16 18 19 15 3 14 18 18 20 20 21 22 24 20 16 16 10 8 13 12 9 8 10 4 7 7 8 8 3
21 20 18 17 19 18 17 16 16 13 13 12 13 13 12 12 12 13 15 17 19 10 2 13 16 16 17 18 18 20 22 22 17 16 12 9 11 12 9 12 10 7 10 8 8 7 8
24 22 21 19 19 21 20 19 18 17 16 14 14 13 13 13 13 13 14 15 17 6 4 9 15 18 16 17 16 17 19 23 19 16 15 9 11 12 11 10 8 11 11 9 7 5 4
26 24 23 22 21 21 22 21 21 20 17 17 16 15 14 14 13 14 14 15 8 2 15 9 17 19 15 19 14 18 16 16 20 16 13 12 11 17 15 12 10 13 11 4 2 1 3
27 27 24 25 24 22 21 23 22 23 20 19 18 17 16 15 14 14 14 15 4 8 13 16 18 16 11 18 18 20 16 8 15 18 13 10 7 14 17 15 12 7 7 6 5 7 12
31 26 28 25 24 25 21 23 24 24 22 21 20 20 17 17 15 15 15 12 7 12 13 18 19 11 8 17 17 18 13 6 11 19 11 10 7 12 17 13 9 7 5 8 6 9 7
23 31 34 31 26 25 23 24 25 25 24 22 21 22 19 18 16 16 17 16 16 15 16 16 11 10 11 12 16 12 9 9 14 16 15 9 9 11 19 9 8 6 6 5 2 5 8
29 33 32 32 29 26 24 23 25 25 24 23 21 22 21 18 16 15 16 17 20 19 14 14 17 16 14 12 19 13 9 14 9 16 17 16 7 12 14 9 9 7 4 2 5 6 5
26 24 25 31 32 26 26 24 24 26 23 24 21 21 19 16 17 17 20 21 21 20 16 17 19 13 10 17 17 12 10 14 14 16 12 14 11 10 17 14 9 10 10 8 6 6 12
20 22 22 28 34 31 25 24 25 26 23 23 21 23 22 21 21 22 19 19 20 22 17 13 14 17 16 21 12 10 19 18 20 14 9 16 6 11 9 8 8 16 12 15 14 15 20
22 27 28 31 31 31 22 26 29 24 22 22 20 20 21 21 21 21 20 19 15 14 16 21 20 20 21 20 20 12 20 18 20 18 22 20 13 15 22 23 24 25 25 21 18 19 23
19 18 22 30 31 31 27 25 23 22 21 21 20 21 19 17 17 17 18 21 22 24 22 20 22 20 19 21 14 18 15 20 22 24 24 18 18 20 32 29 31 30 28 25 23 33 26
22 22 24 28 28 26 27 26 21 21 21 21 20 20 20 21 19 20 22 24 22 22 20 20 23 22 22 22 17 21 23 20 20 20 24 28 24 19 32 28 21 26 32 32 26 26 27
22 23 23 20 20 26 24 23 20 18 19 19 21 22 22 22 20 21 23 22 22 23 23 23 24 25 28 29 28 28 29 28 30 28 28 25 21 17 25 20 17 23 15 12 17 21 22
23 21 20 20 21 22 22 20 18 19 19 21 23 22 23 25 21 22 23 23 24 26 27 26 28 27 29 30 33 33 29 28 28 27 25 30 27 18 23 19 9 13 17 20 24 25 29
24 23 24 25 23 23 22 21 19 18 21 22 21 21 23 23 22 21 23 23 24 25 26 27 26 26 25 25 28 20 20 23 20 17 21 23 22 19 11 17 27 28 14 11 19 24 21
21 20 24 24 23 21 19 15 13 12 15 15 21 24 26 26 25 24 23 22 23 25 26 27 26 29 32 32 23 15 19 23 12 14 15 18 21 19 13 11 8 8 15 18 23 26 2
20 19 23 26 22 19 17 18 24 25 31 27 27 25 28 29 29 26 25 24 27 30 35 35 35 32 32 30 22 26 30 25 24 15 15 14 22 26 30 21 20 21 27 26 10 10 10
20 20 17 20 20 20 22 20 24 28 24 24 23 25 30 36 36 35 34 36 34 32 34 33 37 32 29 25 16 17 17 15 14 15 17 19 13 14 17 20 18 16 15 16 13 17 24
16 14 16 22 26 25 27 24 21 20 20 23 28 32 34 35 39 38 37 38 35 30 27 31 30 27 23 18 15 19 24 20 23 33 22 25 25 31 31 31 22 26 29 36 44 48 46
Wind_Direction
29 18 19 24 24 23 30 38 41 45 42 41 38 32 30 26 19 15 16 19 21 18 21 21 21 16 14 18 5 356 355 359 360 356 345 339 335 316 285 287 252 244 230 240 246 222 221
11 15 10 20 30 24 25 32 43 49 45 40 40 36 31 29 26 20 14 16 18 16 20 22 25 21 17 12 5 9 6 2 4 360 352 347 327 306 328 285 234 254 234 248 240 244 245
350 9 3 17 25 28 22 28 40 45 48 43 41 39 32 28 27 27 20 11 15 15 17 22 26 24 27 16 11 10 14 11 10 11 1 354 345 318 318 292 275 232 254 241 232 231 253
314 341 352 7 9 17 19 30 31 37 38 47 42 37 32 27 26 27 24 15 9 13 14 19 20 23 28 18 17 14 8 14 17 18 9 358 359 22 356 300 313 238 248 230 231 217 235
287 302 315 323 348 356 5 19 26 29 30 32 35 30 28 28 23 23 23 21 16 15 17 17 20 21 21 18 20 21 19 22 21 17 17 15 29 37 17 317 258 253 280 223 176 214 217
270 277 288 292 297 317 335 355 1 9 10 15 20 22 20 18 20 16 20 16 22 24 23 24 21 23 5 16 18 20 19 18 19 24 14 27 22 2 10 21 24 351 354 210 199 206 219
259 265 270 272 277 289 303 319 329 335 337 347 0 4 9 12 10 11 10 13 10 23 26 24 21 18 11 10 12 16 14 17 20 8 17 29 30 25 358 5 3 358 319 18 249 290 213
262 260 257 260 262 268 282 292 305 311 316 326 337 346 351 360 2 4 4 4 3 347 19 22 20 18 16 12 15 10 10 13 16 7 22 23 20 19 20 10 347 359 358 358 4 26 199
260 263 263 258 256 258 266 276 287 298 305 310 319 326 334 344 351 357 359 357 354 349 341 10 12 16 16 20 19 14 12 13 17 10 15 19 1 19 6 6 6 9 14 355 342 324 273
260 260 262 265 261 256 258 265 275 287 297 303 309 312 319 328 338 347 351 352 349 346 319 356 357 7 13 17 16 20 20 16 13 12 23 10 26 34 17 9 2 348 341 341 334 339 327
263 260 261 262 265 262 260 260 266 275 288 297 300 305 311 317 327 337 343 345 345 343 24 341 354 355 2 12 11 18 20 27 25 19 23 358 15 23 12 4 9 333 333 316 322 315 313
263 262 261 260 262 266 263 261 263 268 276 286 292 296 303 308 314 326 332 340 342 346 303 337 348 351 349 360 3 5 12 21 24 19 11 7 2 2 356 360 9 353 344 309 302 309 271
263 262 264 262 258 262 266 264 263 264 270 277 284 289 293 300 306 315 324 334 337 297 333 326 340 343 341 353 350 358 356 7 19 11 358 352 348 2 359 13 351 354 356 338 345 306 327
263 264 259 265 264 261 261 265 264 265 266 272 278 284 287 289 296 303 312 323 285 304 318 326 332 339 338 348 346 348 355 354 359 14 333 340 329 353 356 356 340 358 12 3 320 341 315
264 261 264 260 266 268 263 263 264 264 265 268 274 279 282 285 290 295 302 304 281 306 312 319 326 336 331 336 339 343 331 332 344 4 9 346 324 335 357 358 4 334 346 324 297 302 280
259 276 267 260 263 263 264 264 265 265 266 268 272 276 281 284 286 290 291 288 287 300 307 309 313 310 319 324 336 330 324 313 331 344 355 325 305 316 339 343 2 358 333 320 298 301 325
270 275 272 259 253 260 260 262 264 265 267 269 273 277 282 286 284 283 286 289 296 301 303 303 304 301 310 320 326 323 310 310 321 329 334 339 320 320 334 314 312 315 329 304 287 273 302
266 268 276 272 254 255 259 259 260 265 268 271 272 278 278 282 283 282 289 294 295 295 296 293 299 299 299 311 315 300 291 303 316 314 321 323 308 295 306 302 291 293 298 289 286 293 270
260 260 270 269 258 254 252 258 265 264 266 269 273 276 275 280 282 286 288 288 289 295 295 292 295 291 299 308 307 282 301 311 310 307 304 318 304 305 316 308 319 322 303 293 281 275 266
267 269 274 270 253 253 253 259 263 265 269 270 274 278 279 280 282 280 282 283 287 291 291 295 293 290 298 296 294 279 296 299 301 297 304 306 283 271 281 288 297 295 289 277 274 271 270
257 268 270 262 254 246 249 256 260 263 265 267 270 273 274 272 276 283 280 278 287 292 291 293 294 299 297 290 289 293 303 304 300 301 302 290 276 282 288 289 298 295 291 290 258 263 264
263 267 277 266 241 239 252 256 260 263 265 266 268 274 274 273 275 280 282 287 292 293 288 293 293 291 287 282 279 282 289 281 282 288 290 292 282 287 287 300 292 290 296 295 278 266 261
263 265 259 251 240 248 259 253 257 262 266 277 277 271 271 270 279 281 280 285 289 290 291 294 295 289 289 292 291 286 285 283 280 272 273 274 281 292 281 295 298 296 298 288 288 287 288
254 260 248 243 240 244 250 256 260 268 270 266 266 265 272 277 278 277 279 281 283 282 281 289 291 290 294 297 294 293 291 289 284 285 278 265 260 273 284 292 250 265 276 286 282 291 287
249 254 249 245 246 252 257 263 266 271 273 270 273 272 269 273 276 278 277 281 279 283 289 287 290 294 297 295 299 302 300 294 299 289 272 267 254 249 259 258 276 286 295 292 290 291 282
257 259 256 243 241 246 253 257 253 250 253 268 279 284 279 280 279 280 280 283 288 290 289 290 288 296 295 292 294 282 285 291 279 289 276 263 266 230 251 263 273 299 285 289 296 302 301
253 252 247 242 235 230 225 232 250 253 272 268 275 280 282 281 278 278 279 287 289 291 288 289 291 293 290 289 280 280 279 277 271 265 280 269 248 235 246 255 268 275 286 288 264 295 301
249 248 244 243 239 243 247 259 262 261 268 272 272 280 284 282 281 281 285 283 284 285 286 290 289 290 283 277 271 278 276 276 262 267 272 263 259 246 251 254 274 291 290 263 281 276 288
236 238 240 244 237 248 255 255 251 255 258 269 277 279 284 291 290 290 292 295 284 283 277 276 274 276 267 266 263 278 275 267 278 277 269 267 260 268 261 260 260 287 294 286 290 287 287